User: anonymous   Login
Location: downtown San Diego
(32.7310°N, 117.1990°W)
Time: 23:56:23
(UTC-07:00)
Language:

ATLAS CENTAUR R/B - Orbit

View from above orbital plane
View from above orbital plane
View from above satellite
View from above satellite

Ground track
Ground track

The orbit data is extracted from the following two-line orbital elements,

1 38770U 12048N   19110.89420328 0.00000900  00000-0  53528-4 0    07
2 38770  64.6621  57.5529 0187454 267.8492  92.1508 14.97364043    08
Epoch (UTC): 20 April 2019 21:27:39
Eccentricity: 0.0187454
inclination: 64.6621°
perigee height: 445 km
apogee height: 705 km
right ascension of ascending node: 57.5529°
argument of perigee: 267.8492°
revolutions per day: 14.97364043
mean anomaly at epoch: 92.1508°
orbit number at epoch: 0

The dashed part of the orbit path shows where the satellite is in the earth's shadow,  

DLR